Regional Weather Roundup
Issued by NWS

Home | Current Version | Previous Version | Graphics & Text | Print | Product List | Glossary On
Versions: 1 2 3 4 5 6 7 8 9 10 11 12 13 14 15 16 17 18 19 20 21 22 23 24 25 26 27 28 29 30 31 32 33 34 35 36 37 38 39 40 41 42 43 44 45 46 47 48 49 50
000
ASUS43 KIND 272359
RWRIN

WEATHER ROUNDUP FOR INDIANA
NATIONAL WEATHER SERVICE INDIANAPOLIS IN
700 PM EST MON FEB 27 2017

NOTE: "FAIR" INDICATES FEW OR NO CLOUDS BELOW 12,000 FEET WITH NO
SIGNIFICANT WEATHER AND/OR OBSTRUCTIONS TO VISIBILITY.

* - STATION DOES NOT REPORT WEATHER SUCH AS PRECIPITATION OR FOG.

+ - STATION NOT QUALITY CONTROLLED BY THE NATIONAL WEATHER SERVICE.
    USE DATA WITH CAUTION...ESPECIALLY DEWPOINT AND RELATIVE
    HUMIDITY OBSERVATIONS.

INZ001>003-010>013-019-020-280100-
NORTHWEST INDIANA

CITY           SKY/WX    TMP DP  RH WIND       PRES   REMARKS
KNOX *+        CLEAR     45  16  31 SE7       30.12R

$$

LMZ046-743>745-280100-
SOUTHERN LAKE MICHIGAN

STATION/POSITION TIME  TEMP    WIND        PRES    WAVE
                       AIR SEA DIR/SP/G            HT
                 (UTC) (F)     (DEG/KT/KT) (MB)    (FT)
BURNS HARBOR     2340   51     150/  5/  9 1019.6S
MICHIGAN CITY    2330   50     120/  8/  9   N/A

$$

INZ004-005-014>016-021>024-280100-
NORTH CENTRAL INDIANA

CITY           SKY/WX    TMP DP  RH WIND       PRES   REMARKS
ELKHART        CLEAR     46  32  57 SE6       30.13S
GOSHEN         CLEAR     44  32  62 SE6       30.13S
6HR MIN TEMP:  44; 6HR MAX TEMP:  51;

SOUTH BEND     CLEAR     45  33  63 SE7       30.13R
6HR MIN TEMP:  45; 6HR MAX TEMP:  51;


$$

INZ006>009-017-018-025>027-280100-
NORTHEAST INDIANA

CITY           SKY/WX    TMP DP  RH WIND       PRES   REMARKS
ANGOLA *+      PTCLDY    45  32  61 SE5       30.15S
FORT WAYNE     PTCLDY    44  37  76 SE6       30.16S
6HR MIN TEMP:  44; 6HR MAX TEMP:  51;

KENDALLVILLE + PTCLDY    44  33  65 SE3       30.15S

$$

INZ028-029-035-036-043>045-051>053-280100-
WEST CENTRAL INDIANA

CITY           SKY/WX    TMP DP  RH WIND       PRES   REMARKS
LAFAYETTE      CLEAR     48  38  68 SE8       30.11R
6HR MIN TEMP:  48; 6HR MAX TEMP:  54;

TERRE HAUTE    PTCLDY    49  41  74 SE7       30.12R
6HR MIN TEMP:  49; 6HR MAX TEMP:  56;


$$

INZ030>032-037>040-046>048-054>057-064-065-280100-
CENTRAL INDIANA

CITY           SKY/WX    TMP DP  RH WIND       PRES   REMARKS
COLUMBUS       PTCLDY    46  45  93 SE3       30.16S
GREENWOOD *+   MOCLDY    49  43  80 SE6       30.15S
6HR MIN TEMP:  49; 6HR MAX TEMP:  52;

INDIANAPOLIS   PTCLDY    47  41  80 SE8       30.14R
6HR MIN TEMP:  47; 6HR MAX TEMP:  53;

-EAGLE CREEK   CLEAR     48  40  73 SE6       30.13R
6HR MIN TEMP:  48; 6HR MAX TEMP:  53;

KOKOMO +       CLEAR     45  39  79 S10       30.15R
6HR MIN TEMP:  45; 6HR MAX TEMP:  54;

MT COMFORT *+  CLOUDY    46  41  81 SE8       30.16R
SHELBYVILLE    MOCLDY    49  41  74 S8        30.15S
6HR MIN TEMP:  48; 6HR MAX TEMP:  51;


$$

INZ033-034-041-042-049-050-058-059-280100-
EAST CENTRAL INDIANA

CITY           SKY/WX    TMP DP  RH WIND       PRES   REMARKS
MUNCIE         CLOUDY    48  40  73 SE7       30.15S
6HR MIN TEMP:  48; 6HR MAX TEMP:  52;


$$

INZ060-061-067>069-081>083-085>088-280100-
SOUTHWEST INDIANA

CITY           SKY/WX    TMP DP  RH WIND       PRES   REMARKS
EVANSVILLE     CLEAR     53  44  71 NE5       30.12R
6HR MIN TEMP:  52; 6HR MAX TEMP:  59;

HUNTINGBURG *+ CLEAR     52  44  74 NE6       30.12S
6HR MIN TEMP:  48; 6HR MAX TEMP:  56; 6HR PCP:  9.99;


$$

INZ062-063-066-070>080-084-089>092-280100-
SOUTH CENTRAL AND SOUTHEAST INDIANA

CITY           SKY/WX    TMP DP  RH WIND       PRES   REMARKS
BLOOMINGTON    PTCLDY    47  40  76 SE5       30.13S
6HR MIN TEMP:  47; 6HR MAX TEMP:  52;

MADISON *+     PTCLDY    48  39  71 E3        30.18S
SEYMOUR +      PTCLDY    45  41  87 E5        30.15S

$$





USA.gov is the U.S. government's official web portal to all federal, state and local government web resources and services.